Regional Weather Roundup
Issued by NWS

Home | Current Version | Previous Version | Graphics & Text | Print | Product List | Glossary On
Versions: 1 2 3 4 5 6 7 8 9 10 11 12 13 14 15 16 17 18 19 20 21 22 23 24 25 26 27 28 29 30 31 32 33 34 35 36 37 38 39 40 41 42 43 44 45 46 47 48 49 50
385
ASUS45 KSLC 211010
RWRUT

UTAH REGIONAL WEATHER ROUNDUP
NATIONAL WEATHER SERVICE SALT LAKE CITY UT
400 AM MDT FRI JUL 21 2017

UTZ001>011-023>025-211100-

NORTHERN UTAH

CITY           SKY/WX    TMP DP  RH WIND       PRES   REMARKS
BRIGHAM CITY   CLOUDY    76  44  31 CALM      30.01S
HILL AFB       CLOUDY    79  52  38 SE10      30.04S
LOGAN          CLOUDY    70  61  73 CALM      30.05R
OGDEN          CLOUDY    79  55  43 E8        30.00R
SALT LAKE CITY MOCLDY    80  55  42 SE12      30.00R
TOOELE VALLEY  MOCLDY    75  52  43 NE5       30.02S THUNDER
WENDOVER       PTCLDY    77  38  24 VRB3      30.02R
HEBER CITY     CLOUDY    63  52  67 CALM      30.12S
WEST JORDAN    MOCLDY    77  59  53 S9        30.04F

$$

UTZ011>015-024>027-211100-

CENTRAL/NORTHEAST UTAH

CITY           SKY/WX    TMP DP  RH WIND       PRES   REMARKS
PROVO AIRPORT  CLOUDY    72  55  55 S7        30.05F
MOAB/CANYONLAN MOCLDY    70  65  84 W3        30.07F
DELTA          MOCLDY    72  52  49 S7        30.06S
PRICE          MOCLDY    66  51  58 CALM      30.18F
ROOSEVELT      PTCLDY    68  54  60 W3        30.15F
VERNAL         MOCLDY    70  56  61 NW5       30.14S

$$

UTZ013>016-019>022-027-211100-

SOUTHERN UTAH

CITY           SKY/WX    TMP DP  RH WIND       PRES   REMARKS
BRYCE CANYON   PTCLDY    53  51  93 SW6       30.33F
CEDAR CITY     PTCLDY    65  49  56 NE9       30.17R
MILFORD        MOCLDY    71  54  54 S10       30.10F
ST GEORGE      CLOUDY    81  54  39 E9        29.96R
HANKSVILLE     PTCLDY    70  55  60 NW5       30.09F
BLANDING       CLOUDY    62  60  94 CALM      30.27F

$$

REGIONAL REPORTS     COLORADO/ARIZONA

CITY           SKY/WX    TMP DP  RH WIND       PRES   REMARKS
CRAIG, CO      CLOUDY    66  51  58 SE3       30.24F
GRAND JUNCTION CLOUDY    71  55  56 CALM      30.11S
RIFLE, CO      CLOUDY    64  56  75 N5        30.18S
MONTROSE, CO   CLOUDY    65  50  58 SE13      30.21F
CORTEZ, CO     CLOUDY    58  57  97 NE7       30.21F
COLORADO CITY    N/A     64  57  77 CALM      30.15S
PAGE, AZ       CLOUDY    78  58  49 SW5       30.07F
GRAND CANYON   CLOUDY    60  58  92 CALM      30.27F
KINGMAN, AZ    CLEAR     75  59  57 SE13      30.03S
FLAGSTAFF, AZ  CLOUDY    59  55  87 SW3       30.30F

$$

REGIONAL REPORTS    NEVADA/IDAHO/WYOMING

CITY           SKY/WX    TMP DP  RH WIND       PRES   REMARKS
LAS VEGAS, NV  MOCLDY    87  42  20 S8        29.87S
ELY, NY        PTCLDY    61  44  53 S12       30.19S
ELKO, NV       CLEAR     59  23  25 NE5       30.12S
POCATELLO, ID  CLOUDY    70  37  29 SW13      30.07S
BURLEY, ID     CLEAR     58  42  55 SW3       30.05R
FORT BRIDGER,    N/A     63  50  64 W8        30.26R
EVANSTON, WY   CLOUDY    64  50  60 S5        30.23F
ROCK SPRINGS,  CLOUDY    62  49  62 NW3       30.22F
KEMMERER, WY     N/A     55  50  82 N10       30.25F

$$




USA.gov is the U.S. government's official web portal to all federal, state and local government web resources and services.